Location: ???????????
(55.5758°N, 38.4970°E)
Time: 02:48:08
(UTC+00:00)

Cosmos 2322 - Visible Passes

Search period start: 19 February 2026 00:00
Search period end: 01 March 2026 00:00
Orbit: 839 x 854 km, 71.0° (Epoch: 18 February)

Date Brightness Start Highest point End Pass type
(mag) Time Alt. Az. Time Alt. Az. Time Alt. Az.
19 Feb 6.8 03:32:14 10° SE 03:35:57 18° E 03:39:41 10° ENE visible
19 Feb 7.5 15:47:34 10° WNW 15:49:14 11° W 15:50:54 10° WSW visible
20 Feb 6.8 03:18:40 10° SE 03:22:19 18° E 03:25:59 10° ENE visible
20 Feb 7.4 15:33:45 10° WNW 15:35:36 12° W 15:37:27 10° WSW visible
21 Feb 6.7 03:05:05 10° SE 03:08:40 17° E 03:12:16 10° ENE visible
21 Feb 7.3 15:19:57 10° WNW 15:21:58 12° W 15:23:59 10° WSW visible
22 Feb 6.7 02:51:31 10° SE 02:55:02 17° E 02:58:33 10° ENE visible
23 Feb 6.6 02:37:57 10° SE 02:41:23 17° E 02:44:51 10° ENE visible
24 Feb 6.6 02:24:23 10° SE 02:27:45 16° E 02:31:07 10° ENE visible
25 Feb 6.5 02:10:49 10° SE 02:14:06 16° E 02:17:24 10° ENE visible
26 Feb 6.5 01:57:15 10° SE 02:00:27 16° E 02:03:40 10° ENE visible
26 Feb 4.2 03:37:59 10° SSW 03:43:37 69° ESE 03:49:18 10° NE visible
27 Feb 6.5 01:43:42 10° SE 01:46:49 15° E 01:49:57 10° ENE visible
27 Feb 4.2 03:24:20 10° SSW 03:29:57 68° ESE 03:35:38 10° NE visible
28 Feb 6.4 01:30:08 10° SE 01:33:11 15° E 01:36:13 10° ENE visible
28 Feb 4.2 03:10:40 10° SSW 03:16:18 67° ESE 03:21:58 10° NE visible
